Location: Unspecified
(50.0000°N, 15.0000°E)
Time: 04:05:09
(UTC+02:00)

ISS - Pass Details

Date: 21 September 2021
Orbit: 417 x 423 km, 51.6° (Epoch: 24 October)

Event Time Altitude Azimuth Distance (km) Brightness Sun altitude
Rises 20:02:04 0° 243° (WSW) 2,355 0.9 -10.7°
Reaches altitude 10° 20:04:10 10° 240° (WSW) 1,495 -0.2 -11.0°
Maximum altitude 20:07:30 67° 158° (SSE) 457 -3.8 -11.5°
Enters shadow 20:09:56 17° 78° (ENE) 1,137 -2.1 -11.9°
